[Date Prev][Date Next][Thread Prev][Thread Next] - [Date Index][Thread Index][Author Index]
2 Line ISS Keps 12-17
- Subject: [sarex] 2 Line ISS Keps 12-17
- From: "Dave Larsen PhD" <doc@xxxxxxxxxxx>
- Date: Wed, 17 Dec 2003 02:00:53 -0800
ISS
1 25544U 98067A 03351.22535880 .00010979 00000-0 11208-3 0 9019
2 25544 51.6285 176.4251 0005993 257.3804 81.2830 15.65632663289611
----
Via the sarex mailing list at AMSAT.ORG courtesy of AMSAT-NA.
To unsubscribe, send "unsubscribe sarex" to Majordomo@amsat.org
AMSAT Home